Latest Weather Observations for Bushy Park

IDT60901

Issued at 8:41 pm EDT Tuesday 9 February 2016 (issued every 10 minutes, with the page automatically refreshed every 10 minutes)

About weather observations | Map of Hobart area stations | Latest observations for Hobart area | Other Formats
Station Details ID: 095003 Name: BUSHY PARK (BUSHY PARK ESTATES) Lat: -42.71 Lon: 146.90 Height: 27.0 m
Data from the previous 72 hours. | See also: Recent months at Bushy Park
Date/Time
EDT
Tmp

°C
App
Tmp
°C
Dew
Point
°C
Rel
Hum
%
Delta-T

°C
Wind Press
QNH
hPa
Press
MSL
hPa
Rain
since
9 am
mm
Dir
 
Spd
km/h
Gust
km/h
Spd
kts
Gust
kts
09/08:30pm 23.6 20.5 10.3 43 7.3 SSW 17 24 9 13 - - 0.0
09/08:00pm 24.9 21.9 7.7 33 9.1 WSW 13 22 7 12 - - 0.0
09/07:30pm 25.5 22.1 6.1 29 10.0 WSW 13 24 7 13 - - 0.0
09/07:00pm 26.5 22.7 5.8 26 10.7 WSW 15 26 8 14 - - 0.0
09/06:30pm 27.0 22.9 4.1 23 11.5 SW 15 24 8 13 - - 0.0
09/06:00pm 28.3 23.8 4.3 21 12.2 WSW 17 24 9 13 - - 0.0
09/05:30pm 28.8 24.6 3.6 20 12.7 SW 15 30 8 16 - - 0.0
09/05:00pm 28.4 23.2 3.5 20 12.5 WSW 20 33 11 18 - - 0.0
09/04:30pm 29.7 24.0 2.7 17 13.5 WSW 22 35 12 19 - - 0.0
09/04:00pm 29.2 23.7 2.0 17 13.4 SSW 20 28 11 15 - - 0.0
09/03:30pm 29.5 25.2 6.9 24 12.1 NNE 19 24 10 13 - - 0.0
09/03:00pm 28.4 25.9 6.7 25 11.5 NW 9 15 5 8 - - 0.0
09/02:30pm 27.4 24.7 7.3 28 10.7 NE 11 17 6 9 - - 0.0
09/02:00pm 26.2 23.5 7.3 30 10.0 ENE 11 15 6 8 - - 0.0
09/01:30pm 25.8 22.8 7.7 31 9.6 NNE 13 24 7 13 - - 0.0
09/12:00pm 22.3 19.9 6.8 36 8.0 NE 9 19 5 10 - - 0.0
09/11:30am 21.3 19.4 7.7 41 7.1 NW 7 11 4 6 - - 0.0
09/11:00am 20.2 17.6 7.9 45 6.4 N 11 19 6 10 - - 0.0
09/10:30am 20.1 17.7 8.5 47 6.1 N 11 17 6 9 - - 0.0
09/10:00am 19.9 17.7 9.2 50 5.7 ENE 11 15 6 8 - - 0.0
09/09:30am 18.6 16.7 8.9 53 5.1 NNE 9 11 5 6 - - 0.0
09/09:00am 17.6 15.9 9.7 60 4.2 NNE 9 17 5 9 - - 0.0
09/08:30am 16.4 15.1 9.1 62 3.8 N 6 7 3 4 - - 0.0
09/08:00am 15.1 13.6 9.3 68 3.0 N 7 9 4 5 - - 0.0
09/07:30am 13.3 13.4 10.0 80 1.7 CALM 0 6 0 3 - - 0.0
09/07:00am 10.9 9.9 8.9 87 1.0 ESE 4 9 2 5 - - 0.0
09/06:30am 10.3 8.4 8.9 91 0.7 NW 9 11 5 6 - - 0.0
09/06:00am 11.1 9.8 9.1 87 1.0 N 6 15 3 8 - - 0.0
09/05:30am 11.7 9.9 9.3 85 1.2 WSW 9 13 5 7 - - 0.0
09/05:00am 13.2 11.3 9.1 76 2.1 W 9 13 5 7 - - 0.0
09/04:30am 13.6 11.5 9.7 77 2.0 ENE 11 17 6 9 - - 0.0
09/04:00am 14.3 12.6 9.7 74 2.4 NW 9 13 5 7 - - 0.0
09/03:30am 15.1 13.1 10.2 72 2.6 NW 11 17 6 9 - - 0.0
09/03:00am 16.4 14.5 9.1 62 3.8 NW 9 15 5 8 - - 0.0
09/02:30am 17.2 15.4 9.4 60 4.1 WNW 9 19 5 10 - - 0.0
09/02:00am 17.4 14.9 9.7 60 4.0 NNW 13 17 7 9 - - 0.0
09/01:30am 17.3 15.2 9.8 61 3.9 NNW 11 15 6 8 - - 0.0
09/01:00am 17.8 15.9 9.0 56 4.6 NW 9 11 5 6 - - 0.0
09/12:30am 17.9 15.7 9.4 57 4.5 W 11 17 6 9 - - 0.0
09/12:00am 18.2 16.3 8.9 54 4.8 W 9 15 5 8 - - 0.0
 
Date/Time
EDT
Tmp

°C
App
Tmp
°C
Dew
Point
°C
Rel
Hum
%
Delta-T

°C
Wind Press
QNH
hPa
Press
MSL
hPa
Rain
since
9 am
mm
Dir
 
Spd
km/h
Gust
km/h
Spd
kts
Gust
kts
08/11:30pm 18.2 16.3 8.9 54 4.8 W 9 13 5 7 - - 0.0
08/11:00pm 18.2 16.1 8.4 52 5.1 WNW 9 19 5 10 - - 0.0
08/10:30pm 17.8 16.3 9.3 57 4.4 NW 7 11 4 6 - - 0.0
08/10:00pm 17.8 15.3 8.1 53 5.0 NW 11 17 6 9 - - 0.0
08/09:30pm 18.0 15.1 8.1 52 5.1 NW 13 19 7 10 - - 0.0
08/09:00pm 18.4 15.7 7.4 48 5.6 W 11 19 6 10 - - 0.0
08/08:30pm 19.1 16.1 7.9 48 5.7 WSW 13 19 7 10 - - 0.0
08/08:00pm 19.8 15.7 8.6 48 5.9 SW 20 28 11 15 - - 0.0
08/07:30pm 20.6 16.9 8.0 44 6.5 W 17 28 9 15 - - 0.0
08/07:00pm 21.8 18.6 8.4 42 7.1 W 15 22 8 12 - - 0.0
08/06:30pm 23.0 19.2 7.4 36 8.1 W 17 32 9 17 - - 0.0
08/06:00pm 24.5 20.1 6.7 32 9.2 W 19 32 10 17 - - 0.0
08/05:30pm 25.0 20.6 7.5 32 9.2 W 20 37 11 20 - - 0.0
08/05:00pm 26.0 21.7 7.2 30 9.9 W 19 35 10 19 - - 0.0
08/04:30pm 26.2 22.0 8.1 31 9.7 NW 20 30 11 16 - - 0.0
08/04:00pm 26.1 22.4 7.9 31 9.7 WNW 17 28 9 15 - - 0.0
08/03:30pm 26.2 22.5 8.1 31 9.7 W 17 30 9 16 - - 0.0
08/03:00pm 26.4 23.0 9.2 33 9.4 W 17 28 9 15 - - 0.0
08/02:30pm 26.1 23.0 8.7 33 9.4 W 15 24 8 13 - - 0.0
08/02:00pm 26.8 23.8 9.3 33 9.6 W 15 28 8 15 - - 0.0
08/01:30pm 25.2 22.0 8.6 35 8.9 WNW 15 24 8 13 - - 0.0
08/01:00pm 25.7 22.3 9.2 35 9.0 WNW 17 30 9 16 - - 0.0
08/12:30pm 24.6 21.1 8.8 36 8.5 W 17 26 9 14 - - 0.0
08/12:00pm 23.7 19.7 8.4 37 8.1 WNW 19 30 10 16 - - 0.0
08/11:30am 23.5 19.3 7.6 36 8.3 WNW 19 30 10 16 - - 0.0
08/11:00am 22.7 18.4 7.7 38 7.8 WSW 20 39 11 21 - - 0.0
08/10:30am 22.6 18.4 8.1 39 7.6 WSW 20 33 11 18 - - 0.0
08/10:16am 22.8 17.1 8.4 39 7.6 WSW 28 41 15 22 - - 0.0
08/10:00am 22.3 19.8 9.6 44 6.9 WSW 13 22 7 12 - - 0.0
08/09:30am 22.0 19.1 9.5 45 6.7 WNW 15 32 8 17 - - 0.0
08/09:00am 21.1 17.4 10.1 49 6.0 WSW 20 39 11 21 - - 0.0
08/08:30am 20.5 18.0 10.9 54 5.3 W 15 30 8 16 - - 0.0
08/08:00am 16.6 17.4 14.9 90 1.0 ENE 4 9 2 5 - - 0.0
08/07:30am 14.7 14.6 13.8 94 0.5 S 7 11 4 6 - - 0.0
08/07:00am 13.6 13.3 12.7 94 0.5 N 6 9 3 5 - - 0.0
08/06:30am 12.8 13.5 12.1 95 0.4 CALM 0 0 0 0 - - 0.0
08/06:00am 13.1 12.5 12.2 94 0.5 W 7 9 4 5 - - 0.0
08/05:30am 13.2 12.3 12.7 97 0.3 WSW 9 15 5 8 - - 0.0
08/05:00am 13.7 12.8 12.6 93 0.6 SW 9 15 5 8 - - 0.0
08/04:30am 14.1 14.3 13.2 94 0.5 NNE 4 6 2 3 - - 0.0
08/04:00am 14.6 14.0 13.5 93 0.6 SSW 9 11 5 6 - - 0.0
08/03:30am 15.9 16.1 14.7 93 0.7 WSW 7 13 4 7 - - 0.0
08/03:00am 16.5 16.3 14.8 90 1.0 SW 9 15 5 8 - - 0.0
08/02:30am 17.8 19.2 15.4 86 1.4 ESE 2 9 1 5 - - 0.0
08/02:00am 18.1 18.5 15.4 84 1.6 ESE 7 9 4 5 - - 0.0
08/01:30am 18.0 18.0 15.3 84 1.6 S 9 11 5 6 - - 0.0
08/01:00am 19.5 20.9 15.3 76 2.5 E 2 9 1 5 - - 0.0
08/12:30am 19.9 19.8 15.0 73 2.9 SE 9 13 5 7 - - 0.0
08/12:00am 20.1 19.6 14.9 72 3.1 SE 11 15 6 8 - - 0.0
 
Date/Time
EDT
Tmp

°C
App
Tmp
°C
Dew
Point
°C
Rel
Hum
%
Delta-T

°C
Wind Press
QNH
hPa
Press
MSL
hPa
Rain
since
9 am
mm
Dir
 
Spd
km/h
Gust
km/h
Spd
kts
Gust
kts
07/11:30pm 20.3 19.4 14.9 71 3.2 SE 13 17 7 9 - - 0.0
07/11:00pm 20.3 18.7 14.9 71 3.2 SSE 17 24 9 13 - - 0.0
07/10:30pm 20.3 18.7 14.9 71 3.2 S 17 24 9 13 - - 0.0
07/10:00pm 20.6 18.5 14.7 69 3.5 SSE 19 26 10 14 - - 0.0
07/09:30pm 21.1 18.8 14.7 67 3.8 SSE 20 32 11 17 - - 0.0
07/09:00pm 21.6 20.0 14.9 65 4.0 SSE 17 24 9 13 - - 0.0
07/08:30pm 22.1 19.4 14.7 63 4.4 SSE 22 30 12 16 - - 0.0
07/08:00pm 22.7 19.3 14.8 61 4.7 SSE 26 39 14 21 - - 0.0
07/07:30pm 23.4 19.5 14.5 57 5.3 SSE 28 39 15 21 - - 0.0
07/07:00pm 23.6 18.9 14.3 56 5.5 SSE 32 41 17 22 - - 0.0
07/06:30pm 24.4 20.0 14.1 52 6.1 SSE 30 41 16 22 - - 0.0
07/06:00pm 25.6 20.5 13.6 47 7.1 SSE 33 46 18 25 - - 0.0
07/05:30pm 27.3 22.9 14.0 44 7.9 SSE 30 39 16 21 - - 0.0
07/05:00pm 28.5 25.3 13.0 38 9.1 S 22 32 12 17 - - 0.0
07/04:30pm 29.9 27.7 9.3 27 11.5 N 11 17 6 9 - - 0.0
07/04:00pm 28.6 27.0 10.1 31 10.4 NE 9 17 5 9 - - 0.0
07/03:30pm 29.2 26.7 9.7 29 10.9 NNE 13 19 7 10 - - 0.0
07/03:00pm 28.2 26.2 8.6 29 10.7 N 9 15 5 8 - - 0.0
07/02:30pm 28.0 26.5 10.6 33 9.8 NNE 9 13 5 7 - - 0.0
07/02:00pm 28.0 26.5 10.4 33 9.9 NNE 9 13 5 7 - - 0.0
07/01:30pm 25.8 23.6 10.8 39 8.4 S 13 19 7 10 - - 0.0
07/01:00pm 26.0 23.8 10.8 38 8.5 SSE 13 19 7 10 - - 0.0
07/12:30pm 26.3 23.9 11.5 39 8.4 NE 15 20 8 11 - - 0.0
07/12:00pm 25.6 23.8 12.1 43 7.7 N 13 22 7 12 - - 0.0
07/11:30am 24.3 23.0 11.4 44 7.3 N 9 13 5 7 - - 0.0
07/11:00am 23.8 23.7 14.0 54 5.8 ENE 7 13 4 7 - - 0.0
07/10:30am 22.5 22.6 14.0 58 5.0 NE 6 9 3 5 - - 0.0
07/10:00am 21.6 21.6 14.1 62 4.4 NNE 7 11 4 6 - - 0.0
07/09:30am 20.8 21.4 15.3 71 3.3 NE 6 9 3 5 - - 0.0
07/09:00am 18.9 19.4 15.0 78 2.3 NNE 6 9 3 5 - - 0.0
07/08:30am 17.8 18.6 14.7 82 1.8 NNE 4 7 2 4 - - 0.0
07/08:00am 17.0 18.3 14.2 83 1.6 CALM 0 0 0 0 - - 0.0
07/07:30am 16.1 16.4 14.5 90 0.9 SW 6 7 3 4 - - 0.0
07/07:00am 15.4 16.7 14.2 92 0.7 CALM 0 0 0 0 - - 0.0
07/06:30am 15.5 16.7 13.9 90 0.9 CALM 0 0 0 0 - - 0.0
07/06:00am 15.6 16.9 14.2 91 0.8 CALM 0 0 0 0 - - 0.0
07/05:30am 15.4 16.7 14.0 91 0.8 CALM 0 0 0 0 - - 0.0
07/05:00am 15.3 16.5 13.9 91 0.8 CALM 0 0 0 0 - - 0.0
07/04:30am 15.1 16.3 13.9 92 0.7 CALM 0 7 0 4 - - 0.0
07/04:00am 14.5 13.4 13.1 91 0.8 WSW 11 13 6 7 - - 0.0
07/03:30am 15.0 15.1 13.8 92 0.7 N 6 9 3 5 - - 0.0
07/03:00am 15.5 16.0 14.1 91 0.8 SW 4 9 2 5 - - 0.0
07/02:30am 15.2 14.8 14.0 92 0.7 SW 9 11 5 6 - - 0.0
07/02:00am 15.0 14.4 13.6 91 0.8 SW 9 11 5 6 - - 0.0
07/01:30am 15.3 15.8 13.9 91 0.8 S 4 7 2 4 - - 0.0
07/01:00am 15.9 15.9 14.2 90 1.0 S 7 9 4 5 - - 0.0
07/12:30am 17.2 17.5 14.6 85 1.5 SE 6 7 3 4 - - 0.0
07/12:00am 18.8 18.1 14.3 75 2.6 SSE 11 15 6 8 - - 0.0
 
Date/Time
EDT
Tmp

°C
App
Tmp
°C
Dew
Point
°C
Rel
Hum
%
Delta-T

°C
Wind Press
QNH
hPa
Press
MSL
hPa
Rain
since
9 am
mm
Dir
 
Spd
km/h
Gust
km/h
Spd
kts
Gust
kts
06/11:30pm 19.0 17.2 14.4 74 2.7 S 17 20 9 11 - - 0.0
06/11:00pm 19.4 17.5 14.3 72 3.0 SSE 17 22 9 12 - - 0.0
06/10:30pm 19.7 17.4 14.0 69 3.3 SSE 19 28 10 15 - - 0.0
06/10:00pm 20.1 17.1 13.7 66 3.7 SSE 22 32 12 17 - - 0.0
06/09:30pm 20.3 17.7 13.7 66 3.8 SSE 20 30 11 16 - - 0.0
06/09:00pm 21.0 17.6 13.6 62 4.3 SSE 24 33 13 18 - - 0.0

Latest Capital City Observations: Canberra | Sydney | Melbourne | Brisbane | Adelaide | Perth | Hobart | Darwin

Other Formats:

Comma delimited format used in spreadsheet applications
http://www.bom.gov.au/fwo/IDT60901/IDT60901.94964.axf

JavaScript Object Notation format (JSON) in row-major order
http://www.bom.gov.au/fwo/IDT60901/IDT60901.94964.json